Muscatine, IA

10:06 AM CST on December 13, 2019 (GMT -0600)
Muscatine Municipal

Weather History for KMUT - October, 2019

Change the Weather History Date:

Saturday, October 26, 2019

  Actual Average Record
Temperature  
Mean Temperature 39 °F -  
Max Temperature 50 °F 60 °F 85 °F (1963)
Min Temperature 28 °F 40 °F 20 °F (1988)
Degree Days  
Heating Degree Days 26    
Moisture  
Dew Point 36 °F    
Average Humidity 88    
Maximum Humidity 100    
Minimum Humidity 66    
Precipitation  
Precipitation 0.00 in - - ()
Sea Level Pressure  
Sea Level Pressure 29.90 in    
Wind  
Wind Speed 3 mph ()    
Max Wind Speed 13 mph    
Max Gust Speed 12 mph    
Visibility 7.5 miles    
Events Rain    
Averages and records for this station are not official NWS values.
T = Trace of Precipitation, MM = Missing Value Source: Averaged Metar Reports

Daily Weather History Graph

Daily Weather History Graph

Search for Another Location

Airport or City:

Astronomy

Oct. 26, 2019 Rise Set
Actual Time 7:28 AM CDT 6:07 PM CDT
Civil Twilight 7:00 AM CDT 6:36 PM CDT
Nautical Twilight 6:27 AM CDT 7:08 PM CDT
Astronomical Twilight 5:55 AM CDT 7:40 PM CDT
Moon 5:22 AM CDT (10/26) 5:45 PM CDT (10/26)
Length of Visible Light 11h 35m
Length of Day
10h 39m
Waning Crescent, 3% of the Moon is Illuminated
Oct 26
Waning Crescent
Oct 27
New
Nov 4
First Quarter
Nov 12
Full
Nov 19
Last Quarter

Hourly Weather History & Observations

Time (CDT) Temp. Windchill Dew Point Humidity Pressure Visibility Wind Dir Wind Speed Gust Speed Precip Events Conditions
12:15 AM 30.2 °F - 30.2 °F 100% 30.19 in 9.0 mi Calm Calm - N/A   Clear
12:35 AM 30.2 °F - 30.2 °F 100% 30.18 in 10.0 mi Calm Calm - N/A   Scattered Clouds
12:55 AM 30.2 °F - 28.4 °F 93% 30.18 in 5.0 mi Calm Calm - N/A   Partly Cloudy
1:15 AM 28.4 °F - 28.4 °F 100% 30.17 in 10.0 mi Calm Calm - N/A   Clear
1:35 AM 28.4 °F - 28.4 °F 100% 30.16 in 1.5 mi Calm Calm - N/A   Clear
1:55 AM 30.2 °F - 28.4 °F 93% 30.15 in 9.0 mi Calm Calm - N/A   Clear
2:15 AM 30.2 °F - 28.4 °F 93% 30.15 in 7.0 mi Calm Calm - N/A   Clear
2:35 AM 28.4 °F - 28.4 °F 100% 30.14 in 2.0 mi Calm Calm - N/A   Clear
2:55 AM 28.4 °F - 26.6 °F 93% 30.15 in 9.0 mi Calm Calm - N/A   Clear
3:15 AM 28.4 °F - 26.6 °F 93% 30.13 in 3.0 mi Calm Calm - N/A   Clear
3:55 AM 28.4 °F - 28.4 °F 100% 30.12 in 9.0 mi Calm Calm - N/A   Unknown
4:15 AM 30.2 °F - 28.4 °F 93% 30.11 in 10.0 mi Calm Calm - N/A   Clear
4:35 AM 30.2 °F - 28.4 °F 93% 30.09 in 9.0 mi Calm Calm - N/A   Clear
4:55 AM 30.2 °F - 30.2 °F 100% 30.09 in 4.0 mi Calm Calm - N/A   Clear
5:15 AM 32.0 °F - 30.2 °F 93% 30.08 in 10.0 mi Calm Calm - N/A   Clear
5:35 AM 32.0 °F - 30.2 °F 93% 30.08 in 2.0 mi Calm Calm - N/A   Clear
5:55 AM 32.0 °F - 30.2 °F 93% 30.09 in 8.0 mi Calm Calm - N/A   Clear
6:15 AM 30.2 °F - 28.4 °F 93% 30.07 in 10.0 mi Calm Calm - N/A   Clear
6:35 AM 30.2 °F 26.7 °F 30.2 °F 100% 30.06 in 10.0 mi North 3.5 mph - N/A   Clear
6:55 AM 32.0 °F - 30.2 °F 93% 30.05 in 4.0 mi Calm Calm - N/A   Clear
7:15 AM 30.2 °F - 28.4 °F 93% 30.05 in 10.0 mi Calm Calm - N/A   Clear
7:35 AM 32.0 °F - 30.2 °F 93% 30.03 in 7.0 mi Calm Calm - N/A   Clear
7:55 AM 32.0 °F - 30.2 °F 93% 30.03 in 9.0 mi Calm Calm - N/A   Clear
8:15 AM 32.0 °F 28.7 °F 32.0 °F 100% 30.01 in 10.0 mi North 3.5 mph - N/A   Clear
8:35 AM 33.8 °F - 32.0 °F 93% 30.01 in 10.0 mi Calm Calm - N/A   Clear
8:55 AM 35.6 °F - 33.8 °F 93% 30.01 in 10.0 mi Calm Calm - N/A   Clear
9:15 AM 37.4 °F 33.8 °F 35.6 °F 93% 29.98 in 8.0 mi NNE 4.6 mph - N/A   Clear
9:35 AM 41.0 °F 39.0 °F 37.4 °F 87% 29.97 in 3.0 mi ENE 3.5 mph - N/A   Clear
9:55 AM 42.8 °F 40.1 °F 37.4 °F 81% 29.97 in 9.0 mi ENE 4.6 mph 11.5 mph N/A   Clear
10:15 AM 42.8 °F 38.6 °F 37.4 °F 81% 29.95 in 10.0 mi ENE 6.9 mph - N/A   Clear
10:35 AM 44.6 °F 39.7 °F 37.4 °F 76% 29.94 in 10.0 mi East 9.2 mph - N/A   Clear
10:55 AM 44.6 °F 40.2 °F 37.4 °F 76% 29.95 in 10.0 mi East 8.1 mph - N/A   Clear
11:15 AM 46.4 °F 43.5 °F 39.2 °F 76% 29.94 in 10.0 mi Variable 5.8 mph - N/A   Clear
11:35 AM 46.4 °F 42.9 °F 37.4 °F 71% 29.93 in 10.0 mi East 6.9 mph - N/A   Clear
11:55 AM 48.2 °F - 37.4 °F 66% 29.91 in 10.0 mi East 5.8 mph - N/A   Clear
12:15 PM 48.2 °F - 39.2 °F 71% 29.90 in 10.0 mi NE 8.1 mph - N/A   Clear
12:35 PM 48.2 °F - 39.2 °F 71% 29.88 in 10.0 mi NE 10.4 mph - N/A   Clear
12:55 PM 48.2 °F - 39.2 °F 71% 29.86 in 10.0 mi ENE 10.4 mph - N/A   Clear
1:15 PM 48.2 °F - 39.2 °F 71% 29.85 in 10.0 mi ENE 9.2 mph - N/A   Clear
1:35 PM 48.2 °F - 39.2 °F 71% 29.82 in 10.0 mi ENE 11.5 mph - N/A   Clear
1:55 PM 48.2 °F - 39.2 °F 71% 29.80 in 10.0 mi ENE 12.7 mph - N/A   Clear
2:15 PM 48.2 °F - 39.2 °F 71% 29.78 in 10.0 mi NE 12.7 mph - N/A   Clear
2:35 PM 48.2 °F - 39.2 °F 71% 29.79 in 10.0 mi NE 6.9 mph - N/A   Mostly Cloudy
2:55 PM 50.0 °F - 39.2 °F 66% 29.79 in 10.0 mi NE 6.9 mph - N/A   Overcast
3:15 PM 48.2 °F - 41.0 °F 76% 29.79 in 10.0 mi ENE 5.8 mph - N/A   Mostly Cloudy
3:35 PM 48.2 °F - 42.8 °F 82% 29.77 in 5.0 mi NNE 9.2 mph - N/A Rain Light Rain
3:55 PM 46.4 °F 41.9 °F 42.8 °F 87% 29.74 in 7.0 mi North 9.2 mph - N/A Rain Light Rain
4:15 PM 46.4 °F 42.9 °F 42.8 °F 87% 29.74 in 8.0 mi North 6.9 mph - N/A   Scattered Clouds
4:35 PM 46.4 °F 42.9 °F 42.8 °F 87% 29.75 in 9.0 mi North 6.9 mph - N/A   Mostly Cloudy
4:55 PM 46.4 °F 42.4 °F 42.8 °F 87% 29.73 in 3.0 mi North 8.1 mph - N/A Rain Light Rain
5:15 PM 46.4 °F 42.4 °F 42.8 °F 87% 29.73 in 3.0 mi NNE 8.1 mph - N/A Rain Light Rain
5:35 PM 46.4 °F 42.4 °F 42.8 °F 87% 29.71 in 3.0 mi North 8.1 mph - N/A Rain Light Rain
5:55 PM 44.6 °F 38.8 °F 42.8 °F 93% 29.71 in 4.0 mi North 11.5 mph - N/A Rain Light Rain
6:15 PM 44.6 °F 39.7 °F 42.8 °F 93% 29.70 in 4.0 mi NNW 9.2 mph - N/A Rain Light Rain
6:35 PM 44.6 °F 39.7 °F 42.8 °F 93% 29.70 in 4.0 mi North 9.2 mph - N/A Rain Light Rain
6:55 PM 44.6 °F 38.8 °F 42.8 °F 93% 29.69 in 3.0 mi North 11.5 mph - N/A   Overcast
7:15 PM 44.6 °F 39.7 °F 42.8 °F 93% 29.68 in 4.0 mi North 9.2 mph - N/A   Mist
7:35 PM 44.6 °F 41.4 °F 42.8 °F 93% 29.68 in 5.0 mi North 5.8 mph - N/A   Overcast
7:55 PM 44.6 °F 42.2 °F 42.8 °F 93% 29.67 in 5.0 mi North 4.6 mph - N/A   Unknown
8:15 PM 44.6 °F 42.2 °F 42.8 °F 93% 29.68 in 6.0 mi North 4.6 mph - N/A   Mostly Cloudy
8:35 PM 44.6 °F 40.2 °F 42.8 °F 93% 29.69 in 7.0 mi NW 8.1 mph - N/A   Overcast
8:55 PM 44.6 °F 41.4 °F 41.0 °F 87% 29.69 in 7.0 mi NW 5.8 mph - N/A   Overcast
9:15 PM 44.6 °F 40.2 °F 41.0 °F 87% 29.69 in 9.0 mi NW 8.1 mph - N/A   Mostly Cloudy
9:35 PM 44.6 °F 39.7 °F 41.0 °F 87% 29.69 in 8.0 mi NW 9.2 mph - N/A   Scattered Clouds
9:55 PM 44.6 °F 40.2 °F 41.0 °F 87% 29.69 in 9.0 mi NW 8.1 mph - N/A   Clear
10:15 PM 42.8 °F 39.3 °F 39.2 °F 87% 29.69 in 8.0 mi NW 5.8 mph - N/A   Clear
10:35 PM 41.0 °F - 39.2 °F 93% 29.69 in 6.0 mi Calm Calm - N/A   Clear
10:55 PM 42.8 °F - 39.2 °F 87% 29.70 in 8.0 mi Calm Calm - N/A   Clear
11:15 PM 42.8 °F - 39.2 °F 87% 29.70 in 8.0 mi Calm Calm - N/A   Clear
11:35 PM 41.0 °F 38.0 °F 37.4 °F 87% 29.71 in 6.0 mi West 4.6 mph - N/A   Clear
11:55 PM 41.0 °F 34.7 °F 39.2 °F 93% 29.71 in 6.0 mi WNW 10.4 mph - N/A   Clear